Location: Hilton Head Island
(32.2163°N, 80.7526°W)
Time: 06:32:41
(UTC-04:00)

Altair - Pass Details

Date: 23 February 2026
Orbit: 1502 x 1682 km, 47.2° (Epoch: 8 March)

Event Time Altitude Azimuth Distance (km) Brightness Sun altitude
Exits shadow 05:57:36 13° 298° (WNW) 3,467 8.8 -13.3°
Maximum altitude 06:04:51 32° 356° (N) 2,401 8.5 -11.8°
Drops below altitude 10° 06:13:04 10° 56° (ENE) 3,759 10.4 -10.1°
Sets 06:16:43 0° 67° (ENE) 4,772 11.3 -9.3°
